COSMOS 1897 DEB, 44572

Orbit data source: Space-Track

COSMOS 1897 DEB, 44572 is space debris in GEO originally from a launch on Thu, 26 Nov 1987 UTC launched from the Tyuratam Missile And Space Complex (TTMTR). Debris objects in space refer to the collection of defunct objects orbiting the Earth. Examples of debris include non-operational satellites, rocket bodies, and fragments generated from explosions, collisions, or faulty payload assembly.

Loading next visibility...
Identifier
44572, 1987-096G
Orbit
GEO
Country
Flag of CISCIS
Related business
Manufacturer
NPO PM
Mission
Spacecraft
Bus & Motor
Unknown
Mass
Unknown
Launch date (UTC)
1987-11-26 (38 years ago)
Launch vehicle
Unknown
Launch site
Tyuratam Missile And Space Complex (TTMTR)
Object type
Payload
Rocket body
Debris
Shape & HBR
Unknown shape, 1.1 m
Radar Cross Section
Large (>1 m²)

Expand to show TLE details & history
Last TLE update: 12 hours ago

TLE from 12 hours ago
0 COSMOS 1897 DEB
1 44572U 87096G   26072.32894420  .00000065  00000-0  00000-0 0  9992
2 44572  11.0017 326.9446 0022521 299.3501 245.9264  1.00476884 70028
Epoch: 2026-03-13T07:53Z
TLE epoch observation values (Epoch: 2026-03-13T07:53:40.778Z)
Latitude
-0.96301°
Longitude
-137.45563°
Altitude
35,767.644 km
Speed
3.074 km/s
True Right ascension
10h 07m 43s
True Declination
0° 57' 43"
Sunlit
Object was in daylight at epoch
Visualization orbit readout
Latitude
Unknown
Longitude
Unknown
Altitude
Unknown
Speed
Unknown
Apparent Right ascension
Unknown
Apparent Declination
Unknown
Sunlit
N/A
Visualization observer readout
Local Sidereal Time
00:17:02
Azimuth
Unknown
Elevation
Unknown
Doppler factor
Unknown
Orbital elements
Apogee altitude
35,825.043 km
Perigee altitude
35,635.379 km
Semi-major axis
42,108.348 km
Eccentricity
0.00225
Inclination
11.0017°
RAAN
326.9446°
Arg. of periapsis
299.3501°
True anomaly
245.69105°
Mean anomaly
245.9264°
Eccentric anomaly
245.8087°
Mean motion
0.25118 °/min
Orbital period
1,433.22 mins
BSTAR
0
Loading maneuver chart data...
Computing Atmospheric mass density...
Loading historical data...
Loading historical data...
Loading historical data...
Loading historical data...
Loading historical data...
Loading historical data...
Loading historical data...

Documentation

Showing up to 5 results
|